Flinterbirka — PHFQ — position and weather

sailwx.info

Track history (hours):
 
Tides and Currents Weather Stations Pressure Air Temp Water Temp Dewpoint Dewpoint Depression Visibility Wind Speed Wind Dir Waves Ship Positions

Flinterbirka

Last reported at 2014-Nov-22 08:33 UTC. Time now 2014-Nov-23 07:25 UTC.
Position N 36°03' W 005°13'.

Length 83 m; draft 5.6 m.

Type: Cargo ship. MMSI: 246525000.

Date/timePositionNaut miles runAvg speedWind from/ knotsBaromVisibWave heightAir tempDewpointWater temp
2014-Nov-22 08:33N 36°03' W 005°13'9 8.8
2014-Nov-22 07:32N 36°07' W 005°23'2 0.1
2014-Nov-21 12:33N 36°06' W 005°21'6 5.4
2014-Nov-21 11:31N 36°05' W 005°14'3 3.0
2014-Nov-21 10:33N 36°04' W 005°17'2 2.1
2014-Nov-21 09:25N 36°04' W 005°14'2 2.1
2014-Nov-21 08:33N 36°04' W 005°17'5 5.0
2014-Nov-21 07:33N 36°00' W 005°12'4 4.5
2014-Nov-21 06:33N 35°59' W 005°17'10 9.6
2014-Nov-21 05:33N 35°56' W 005°29'  
2014-Nov-18 18:19N 36°02' W 005°25'  
2014-Nov-14 09:13N 36°05' W 005°23'811.2
2014-Nov-14 08:30N 35°58' W 005°27'  
Track history (hours):
 
Tides and Currents Weather Stations Pressure Air Temp Water Temp Dewpoint Dewpoint Depression Visibility Wind Speed Wind Dir Waves Ship Positions

Flinterbirka

Last reported at 2014-Nov-22 08:33 UTC. Time now 2014-Nov-23 07:25 UTC.
Position N 36°03' W 005°13'.

Length 83 m; draft 5.6 m.

Type: Cargo ship. MMSI: 246525000.

Date/timePositionNaut miles runAvg speedWind from/ knotsBaromVisibWave heightAir tempDewpointWater temp
2014-Nov-22 08:33N 36°03' W 005°13'9 8.8
2014-Nov-22 07:32N 36°07' W 005°23'2 0.1
2014-Nov-21 12:33N 36°06' W 005°21'6 5.4
2014-Nov-21 11:31N 36°05' W 005°14'3 3.0
2014-Nov-21 10:33N 36°04' W 005°17'2 2.1
2014-Nov-21 09:25N 36°04' W 005°14'2 2.1
2014-Nov-21 08:33N 36°04' W 005°17'5 5.0
2014-Nov-21 07:33N 36°00' W 005°12'4 4.5
2014-Nov-21 06:33N 35°59' W 005°17'10 9.6
2014-Nov-21 05:33N 35°56' W 005°29'  
2014-Nov-18 18:19N 36°02' W 005°25'  
2014-Nov-14 09:13N 36°05' W 005°23'811.2
2014-Nov-14 08:30N 35°58' W 005°27'  

Dump ship's entire track history